Location: Chin
(49.7667°N, 112.4500°W)
Time: 10:10:11
(UTC+00:00)

Envisat - Pass Details

Date: 06 December 2021
Orbit: 764 x 766 km, 98.2° (Epoch: 23 January)

Event Time Altitude Azimuth Distance (km) Brightness Sun altitude
Rises 00:33:18 0° 199° (SSW) 3,221 6.9 -9.8°
Reaches altitude 10° 00:35:58 10° 212° (SSW) 2,300 6.4 -10.2°
Maximum altitude 00:40:09 26° 268° (W) 1,494 5.4 -10.8°
Drops below altitude 10° 00:44:22 10° 324° (NW) 2,315 5.7 -11.4°
Sets 00:47:04 0° 337° (NNW) 3,247 6.3 -11.8°
